#timestamp,LO_Frequency,Hit,StdDev 
1506510015.2,286046999.3,N
1506510035.0,286046999.1,N
1506510035.9,286046999.1,N
1506510055.8,286046998.3,N
1506510075.6,286046997.7,N
1506510095.4,286046997.8,N
1506510115.3,286046996.7,Y
1506510135.1,286046998.3,P
1506510136.0,286046998.3,P
1506510155.8,286046999.1,P
1506510175.7,286046998.7,Y
1506510195.5,286047004.4,P
1506510215.3,286047002.2,N
1506510235.1,286047002.5,N
1506510255.9,286046996.5,N
1506510275.7,286046998.2,N
1506510295.5,286046997.7,N
1506510315.4,286046997.8,N
1506510335.2,286046994.9,N
1506510355.0,286046995.2,N
1506510355.9,286046995.2,N
1506510375.8,286046993.5,N
1506510395.6,286046994.6,N
1506510415.4,286046991.8,N
1506510435.3,286046992.0,N
1506510455.1,286046994.3,N
1506510456.0,286046994.3,N
1506510475.8,286046993.7,N
1506510495.7,286046992.3,N
1506510515.5,286046990.6,N
1506510535.3,286046990.2,N
1506510555.1,286046994.1,N
1506510575.9,286046991.8,N
1506510595.7,286046990.4,N
1506510615.5,286046990.9,N
1506510635.4,286046992.0,N
1506510655.2,286046988.5,Y
1506510675.0,286046995.7,P
1506510675.9,286046995.7,P
1506510695.8,286046994.1,P
1506510715.6,286046995.9,Y
1506510735.4,286046998.6,P
1506510755.3,286047001.2,N
1506510775.1,286047000.0,N
1506510795.8,286047002.4,N
1506510815.7,286047000.5,N
1506510835.5,286046999.5,N
1506510855.3,286046997.2,N
1506510875.2,286046999.1,N
1506510895.9,286046995.5,N
1506510915.7,286046994.6,N
1506510935.6,286046993.0,N
1506510955.4,286046992.4,N
1506510975.2,286046992.1,N
1506510995.1,286046991.1,N
1506510996.0,286046991.1,N
1506511015.8,286046989.1,N
1506511035.6,286046989.7,N
1506511055.4,286046991.0,N
1506511075.3,286046989.4,N
1506511095.1,286046989.1,N
1506511115.8,286046987.0,N
1506511135.7,286046987.2,N
1506511155.5,286046989.4,N
1506511175.3,286046991.3,N
1506511195.2,286046990.1,N
1506511215.9,286046993.2,N
1506511235.7,286046989.2,N
1506511255.6,286046988.8,N
1506511275.4,286046988.0,N
1506511295.2,286046987.2,N
1506511315.1,286046987.9,N
1506511316.0,286046987.9,N
1506511335.8,286046985.6,Y
1506511355.6,286046993.3,P
1506511375.5,286046996.7,P
1506511395.3,286046997.5,N
1506511415.1,286046997.5,N
1506511435.9,286046997.5,N
1506511455.7,286046993.6,N
1506511475.5,286046994.1,N
1506511495.4,286046992.5,Y
1506511515.2,286046999.6,P
1506511535.0,286046996.5,N
1506511535.9,286046996.5,N
1506511555.8,286046999.5,N
1506511575.6,286046997.1,N
1506511595.4,286046998.0,N
1506511615.3,286046995.1,Y
1506511635.1,286046999.0,P
1506511636.0,286046999.0,N
1506511655.8,286047000.6,N
1506511675.6,286046999.9,N
1506511695.5,286047001.0,N
1506511715.3,286047000.9,N
1506511735.1,286046998.2,N
1506511755.9,286046996.6,N
1506511775.7,286046998.3,N
1506511795.5,286046996.6,N
1506511815.4,286046996.0,N
1506511835.2,286046991.7,Y
1506511855.0,286046993.8,P
1506511855.9,286046993.8,N
1506511875.8,286046993.3,N
1506511895.6,286046993.7,N
1506511915.4,286046995.5,N
1506511935.3,286046994.5,N
1506511955.1,286046993.5,Y
1506511975.8,286047001.2,P
1506511995.7,286046996.5,N
1506512015.5,286046996.7,N
1506512035.3,286046996.9,N
1506512055.2,286046995.3,N
1506512075.9,286046997.5,N
1506512095.7,286046999.6,N
1506512115.6,286046999.3,N
1506512135.4,286046998.5,N
1506512155.2,286046996.9,N
1506512175.0,286046995.7,N
1506512176.0,286046995.7,N
1506512195.8,286046994.8,N
1506512215.6,286046994.1,Y
1506512235.5,286046997.3,P
1506512255.3,286046997.2,P
1506512275.1,286046994.9,P
1506512295.9,286046996.3,Y
1506512315.7,286046998.7,P
1506512335.5,286046998.2,N
1506512355.3,286046996.8,P
1506512375.2,286046997.7,N
1506512395.0,286046994.6,Y
1506512395.9,286046994.6,P
1506512415.8,286046997.7,N
1506512435.6,286046995.0,P
1506512455.4,286046997.7,N
1506512475.2,286046996.8,N
1506512495.1,286046999.3,N
1506512496.0,286046999.3,N
1506512515.8,286046998.1,N
1506512535.6,286047001.0,N
1506512555.5,286047002.8,N
1506512575.3,286046999.2,N
1506512595.1,286046995.0,N
1506512615.9,286046998.0,N
1506512635.7,286046993.4,Y
1506512655.5,286046996.9,P
1506512675.4,286046998.4,N
1506512695.2,286046999.5,N
1506512715.0,286046997.8,N
1506512715.9,286046997.8,N
1506512735.8,286046996.4,Y
1506512755.6,286046998.0,P
1506512775.4,286046995.6,P
1506512795.3,286046996.3,P
1506512815.1,286046992.3,Y
1506512835.8,286046995.7,P
1506512855.7,286046997.9,P
1506512875.5,286046995.0,P
1506512895.3,286046994.4,Y
1506512915.2,286046999.6,P
1506512935.9,286046999.6,N
1506512955.7,286046998.0,N
1506512975.6,286046996.4,N
1506512995.4,286046997.5,N
1506513015.2,286046998.7,N
1506513035.0,286046996.5,N
1506513036.0,286046996.5,N
1506513055.8,286046999.4,N
1506513075.6,286046996.9,N
1506513095.4,286046997.9,N
1506513115.3,286046994.0,Y
1506513135.1,286046995.6,P
1506513155.8,286046993.1,P
1506513175.7,286046991.2,P
1506513195.5,286046989.7,Y
1506513215.3,286046994.8,P
1506513235.2,286046992.7,P
1506513255.0,286046992.3,P
1506513255.9,286046992.3,Y
1506513275.8,286046998.4,P
1506513295.6,286047000.7,N
1506513315.4,286047000.0,N
1506513335.2,286046998.9,N
1506513355.1,286046999.6,N
1506513356.0,286046999.6,N
1506513375.8,286046997.7,N
1506513395.6,286046995.1,N
1506513415.5,286046997.8,N
1506513435.3,286046997.7,N
1506513455.1,286046995.6,N
1506513475.9,286046995.1,N
1506513495.7,286046996.0,N
1506513515.5,286046995.0,N
1506513535.4,286046995.8,N
1506513555.2,286046997.3,N
1506513575.0,286046997.0,N
1506513575.9,286046997.0,N
1506513595.7,286046998.3,N
